• In Österreich
  • Länderverzeichnis
  • Für 7 Tage
  • Wassertemperatur
  • Satellitenkarten
  • Wetterkarte
  • News
  • Widgets
  • user-avatar
    Anmelden

    Stündliche Wetter Quito

    Heute, 20 Oktober, Freitag

    Zeit Temperatur Niederschläge Wind Luftdruck Luftfeuchtigkeit
    00:00 +23°C° 0 mm 1 m/S 622 mmHg 44%
    01:00 +22°C° 0 mm 1 m/S 622 mmHg 48%
    02:00 +22°C° 0 mm 1 m/S 622 mmHg 50%
    03:00 +21°C° 0 mm 1 m/S 622 mmHg 52%
    04:00 +21°C° 0 mm 1 m/S 622 mmHg 55%
    05:00 +21°C° 0 mm 2 m/S 623 mmHg 55%
    06:00 +21°C° 0 mm 2 m/S 623 mmHg 55%
    07:00 +23°C° 0 mm 2 m/S 624 mmHg 55%
    08:00 +25°C° 0 mm 2 m/S 625 mmHg 47%
    09:00 +28°C° 0 mm 2 m/S 626 mmHg 38%
    10:00 +30°C° 0 mm 2 m/S 627 mmHg 29%
    11:00 +31°C° 0 mm 2 m/S 626 mmHg 26%
    12:00 +32°C° 0 mm 2 m/S 626 mmHg 24%
    13:00 +34°C° 0 mm 2 m/S 625 mmHg 21%
    14:00 +34°C° 0 mm 2 m/S 625 mmHg 23%
    15:00 +32°C° 0 mm 2 m/S 624 mmHg 25%
    16:00 +31°C° 0 mm 2 m/S 624 mmHg 26%
    17:00 +29°C° 0 mm 2 m/S 624 mmHg 33%
    18:00 +27°C° 0 mm 2 m/S 623 mmHg 40%
    19:00 +25°C° 0 mm 2 m/S 623 mmHg 47%
    20:00 +24°C° 0 mm 2 m/S 623 mmHg 54%
    21:00 +23°C° 0 mm 2 m/S 624 mmHg 60%
    22:00 +21°C° 0 mm 2 m/S 624 mmHg 66%
    23:00 +20°C° 0,1 mm 2 m/S 624 mmHg 71%

    Morgen, 21 Oktober, Samstag

    Zeit Temperatur Niederschläge Wind Luftdruck Luftfeuchtigkeit
    00:00 +20°C° 0,1 mm 1 m/S 623 mmHg 76%
    01:00 +20°C° 0,1 mm 1 m/S 623 mmHg 81%
    02:00 +20°C° 0 mm 1 m/S 622 mmHg 82%
    03:00 +19°C° 0 mm 1 m/S 622 mmHg 82%
    04:00 +19°C° 0 mm 1 m/S 622 mmHg 83%
    05:00 +20°C° 0 mm 1 m/S 623 mmHg 78%
    06:00 +22°C° 0 mm 1 m/S 624 mmHg 72%
    07:00 +23°C° 0 mm 2 m/S 624 mmHg 67%
    08:00 +26°C° 0 mm 1 m/S 625 mmHg 56%
    09:00 +30°C° 0 mm 1 m/S 627 mmHg 45%
    10:00 +31°C° 0 mm 0 m/S 628 mmHg 34%
    11:00 +33°C° 0 mm 1 m/S 627 mmHg 34%
    12:00 +32°C° 0 mm 1 m/S 626 mmHg 33%
    13:00 +31°C° 0 mm 2 m/S 625 mmHg 33%
    14:00 +31°C° 0 mm 2 m/S 624 mmHg 35%
    15:00 +30°C° 0 mm 2 m/S 624 mmHg 37%
    16:00 +29°C° 0 mm 2 m/S 623 mmHg 40%
    17:00 +27°C° 0,5 mm 2 m/S 623 mmHg 48%
    18:00 +26°C° 0,5 mm 3 m/S 623 mmHg 56%
    19:00 +24°C° 0,5 mm 3 m/S 623 mmHg 64%
    20:00 +22°C° 3,4 mm 3 m/S 624 mmHg 70%
    21:00 +21°C° 3,4 mm 3 m/S 624 mmHg 76%
    22:00 +20°C° 3,4 mm 4 m/S 625 mmHg 83%
    23:00 +19°C° 4,2 mm 4 m/S 624 mmHg 83%

    übermorgen, 22 Oktober, Sonntag

    Zeit Temperatur Niederschläge Wind Luftdruck Luftfeuchtigkeit
    00:00 +19°C° 4,2 mm 4 m/S 624 mmHg 82%
    01:00 +18°C° 4,2 mm 4 m/S 624 mmHg 82%
    02:00 +18°C° 0,4 mm 3 m/S 623 mmHg 81%
    03:00 +18°C° 0,4 mm 2 m/S 623 mmHg 80%
    04:00 +19°C° 0,4 mm 1 m/S 623 mmHg 80%
    05:00 +19°C° 0 mm 1 m/S 623 mmHg 78%
    06:00 +20°C° 0 mm 1 m/S 624 mmHg 76%
    07:00 +20°C° 0 mm 1 m/S 624 mmHg 75%
    08:00 +22°C° 0 mm 1 m/S 625 mmHg 67%
    09:00 +24°C° 0 mm 1 m/S 625 mmHg 60%
    10:00 +26°C° 0 mm 1 m/S 626 mmHg 52%
    11:00 +27°C° 0 mm 1 m/S 626 mmHg 47%
    12:00 +29°C° 0 mm 2 m/S 625 mmHg 41%
    13:00 +30°C° 0 mm 3 m/S 625 mmHg 36%
    14:00 +29°C° 0 mm 3 m/S 625 mmHg 38%
    15:00 +29°C° 0 mm 2 m/S 624 mmHg 41%
    16:00 +28°C° 0 mm 2 m/S 624 mmHg 43%
    17:00 +26°C° 0,1 mm 2 m/S 623 mmHg 50%
    18:00 +24°C° 0,1 mm 2 m/S 623 mmHg 56%
    19:00 +22°C° 0,1 mm 1 m/S 623 mmHg 63%
    20:00 +20°C° 0,6 mm 2 m/S 624 mmHg 71%
    21:00 +19°C° 0,6 mm 2 m/S 624 mmHg 78%
    22:00 +18°C° 0,6 mm 2 m/S 624 mmHg 86%
    23:00 +18°C° 0 mm 2 m/S 623 mmHg 85%

    23 Oktober, Montag

    Zeit Temperatur Niederschläge Wind Luftdruck Luftfeuchtigkeit
    00:00 +18°C° 0 mm 2 m/S 623 mmHg 84%
    01:00 +19°C° 0 mm 1 m/S 622 mmHg 84%
    02:00 +19°C° 0 mm 1 m/S 622 mmHg 83%
    03:00 +19°C° 0 mm 1 m/S 622 mmHg 82%
    04:00 +19°C° 0 mm 1 m/S 622 mmHg 82%
    05:00 +19°C° 0 mm 1 m/S 622 mmHg 78%
    06:00 +20°C° 0 mm 1 m/S 623 mmHg 75%
    07:00 +21°C° 0 mm 1 m/S 623 mmHg 71%
    08:00 +24°C° 0 mm 2 m/S 624 mmHg 61%
    09:00 +26°C° 0 mm 2 m/S 625 mmHg 51%
    10:00 +29°C° 0 mm 3 m/S 625 mmHg 40%
    11:00 +29°C° 0 mm 2 m/S 625 mmHg 39%
    12:00 +29°C° 0 mm 2 m/S 624 mmHg 38%
    13:00 +30°C° 0 mm 2 m/S 624 mmHg 37%
    14:00 +29°C° 0,1 mm 2 m/S 623 mmHg 40%
    15:00 +28°C° 0,1 mm 2 m/S 623 mmHg 44%
    16:00 +27°C° 0,1 mm 2 m/S 623 mmHg 47%
    17:00 +25°C° 0,2 mm 2 m/S 622 mmHg 55%
    18:00 +24°C° 0,2 mm 2 m/S 622 mmHg 64%
    19:00 +21°C° 0,2 mm 2 m/S 622 mmHg 72%
    20:00 +20°C° 0,6 mm 2 m/S 622 mmHg 75%
    21:00 +20°C° 0,6 mm 2 m/S 623 mmHg 78%
    22:00 +19°C° 0,6 mm 2 m/S 623 mmHg 81%
    23:00 +19°C° 0,3 mm 2 m/S 623 mmHg 82%

    24 Oktober, Dienstag

    Zeit Temperatur Niederschläge Wind Luftdruck Luftfeuchtigkeit
    00:00 +20°C° 0,3 mm 1 m/S 622 mmHg 83%
    01:00 +20°C° 0,3 mm 1 m/S 622 mmHg 84%
    02:00 +19°C° 0,4 mm 1 m/S 622 mmHg 84%
    03:00 +19°C° 0,4 mm 1 m/S 622 mmHg 84%
    04:00 +19°C° 0,4 mm 1 m/S 621 mmHg 84%
    05:00 +20°C° 0 mm 1 m/S 622 mmHg 82%
    06:00 +20°C° 0 mm 1 m/S 623 mmHg 80%
    07:00 +21°C° 0 mm 1 m/S 623 mmHg 78%
    08:00 +23°C° 0,2 mm 1 m/S 624 mmHg 69%
    09:00 +26°C° 0,2 mm 1 m/S 625 mmHg 60%
    10:00 +28°C° 0,2 mm 1 m/S 625 mmHg 51%
    11:00 +29°C° 0,1 mm 1 m/S 625 mmHg 46%
    12:00 +30°C° 0,1 mm 1 m/S 625 mmHg 42%
    13:00 +31°C° 0,1 mm 1 m/S 624 mmHg 37%
    14:00 +30°C° 0 mm 1 m/S 624 mmHg 39%
    15:00 +29°C° 0 mm 1 m/S 624 mmHg 41%
    16:00 +29°C° 0 mm 1 m/S 623 mmHg 43%
    17:00 +27°C° 0 mm 1 m/S 623 mmHg 49%
    18:00 +25°C° 0 mm 1 m/S 623 mmHg 55%
    19:00 +23°C° 0 mm 1 m/S 623 mmHg 61%
    20:00 +22°C° 0,3 mm 1 m/S 623 mmHg 67%
    21:00 +21°C° 0,3 mm 1 m/S 623 mmHg 74%
    22:00 +19°C° 0,3 mm 2 m/S 623 mmHg 80%
    23:00 +20°C° 0,1 mm 1 m/S 623 mmHg 81%

    25 Oktober, Mittwoch

    Zeit Temperatur Niederschläge Wind Luftdruck Luftfeuchtigkeit
    00:00 +20°C° 0,1 mm 1 m/S 622 mmHg 83%
    01:00 +19°C° 0,1 mm 1 m/S 622 mmHg 84%
    02:00 +19°C° 0,3 mm 1 m/S 622 mmHg 85%
    03:00 +19°C° 0,3 mm 1 m/S 622 mmHg 85%
    04:00 +19°C° 0,3 mm 1 m/S 622 mmHg 86%
    05:00 +20°C° 0,1 mm 1 m/S 622 mmHg 83%
    06:00 +19°C° 0,1 mm 2 m/S 623 mmHg 81%
    07:00 +20°C° 0,1 mm 2 m/S 623 mmHg 78%
    08:00 +23°C° 0 mm 2 m/S 624 mmHg 69%
    09:00 +25°C° 0 mm 2 m/S 624 mmHg 59%
    10:00 +27°C° 0 mm 2 m/S 625 mmHg 49%
    11:00 +28°C° 0 mm 2 m/S 624 mmHg 47%
    12:00 +29°C° 0 mm 2 m/S 624 mmHg 44%
    13:00 +30°C° 0 mm 1 m/S 624 mmHg 41%
    14:00 +29°C° 0,1 mm 1 m/S 623 mmHg 43%
    15:00 +28°C° 0,1 mm 1 m/S 623 mmHg 45%
    16:00 +28°C° 0,1 mm 1 m/S 623 mmHg 47%
    17:00 +26°C° 0,6 mm 1 m/S 623 mmHg 56%
    18:00 +24°C° 0,6 mm 2 m/S 622 mmHg 66%
    19:00 +21°C° 0,6 mm 2 m/S 622 mmHg 75%
    20:00 +20°C° 1,2 mm 2 m/S 623 mmHg 78%
    21:00 +20°C° 1,2 mm 2 m/S 623 mmHg 81%
    22:00 +19°C° 1,2 mm 2 m/S 623 mmHg 84%
    23:00 +19°C° 0,6 mm 2 m/S 623 mmHg 86%
    Mehr zeigen